Weather observations for the past three days for
Tulsa - Jones Jr. Airport
Imperial (Metric)
Date Time (cdt) Wind (mph) Vis. (mi.) Weather Sky Cond. Temperature (ºF) Relative Humidity Wind Chill (°F) Heat Index (°F) Pressure Precipitation (in)
Air Dwpt 6 hour altimeter (in) sea level (mb) 1 hr 3 hr 6 hr
Max. Min.
17 22:53 N 3 10.00 Fair CLR 77 69.1 77% 79 30.07 1018.4
17 21:53 N 5 10.00 Fair CLR 80.1 68 67% 83 30.05 1017.8
17 20:53 N 5 10.00 Fair CLR 82 68 63% 85 30.03 1017.0
17 19:53 NE 10 10.00 A Few Clouds FEW040 84 66.9 57% 87 30 1016.3
17 18:53 N 9 G 21 10.00 A Few Clouds FEW039 86 68 88 79 55% 89 30 1016.1
17 17:53 NE 12 G 18 10.00 A Few Clouds FEW036 87.1 69.1 55% 91 30 1016.0
17 16:53 N 8 10.00 A Few Clouds FEW035 86 69.1 57% 90 30 1016.1
17 15:53 N 8 10.00 Mostly Cloudy BKN031 BKN041 84.9 70 61% 89 30 1016.0
17 14:53 Calm 10.00 Mostly Cloudy BKN023 BKN029 82.9 71.1 67% 88 30.03 1017.1
17 13:53 Vrbl 3 10.00 Overcast BKN023 OVC035 80.1 71.1 74% 84 30.04 1017.5
17 12:53 Calm 10.00 Overcast BKN023 OVC030 79 70 80.1 73.9 74% 82 30.04 1017.4
17 11:53 SW 5 10.00 Mostly Cloudy FEW032 BKN120 79 71.1 77% 82 30.03 1017.1
17 10:53 W 3 10.00 Partly Cloudy FEW030 SCT120 79 71.1 77% 82 30.01 1016.6
17 09:53 Calm 10.00 Overcast BKN021 BKN026 OVC031 77 70 79% 79 30.02 1016.7
17 08:53 Calm 10.00 Fair CLR 75.9 71.1 85% 76 29.97 1015.1
17 07:53 SW 3 10.00 Partly Cloudy SCT022 73.9 71.1 91% 29.96 1014.7
17 05:53 Calm 10.00 Fair CLR 75.9 70 82% 77 29.95 1014.3
17 04:53 N 3 10.00 A Few Clouds FEW110 75.9 70 82% 77 29.93 1013.6
17 03:53 Calm 10.00 Thunderstorm Light Rain FEW100 75.9 71.1 85% 76 29.93 1013.7
17 02:53 N 6 10.00 Thunderstorm FEW045 BKN090 OVC110 81 68 65% 84 29.94 1014.1
17 01:53 Calm 10.00 Thunderstorm in Vicinity BKN100 84 72 67% 90 29.88 1011.7
17 00:53 Vrbl 3 10.00 Partly Cloudy SCT100 81 75 93.9 80.1 82% 87 29.86 1011.2
16 23:53 Calm 10.00 A Few Clouds FEW100 81 75 82% 87 29.86 1011.2
16 22:53 Calm 10.00 Fair CLR 81 75 82% 87 29.85 1010.9
16 21:53 Calm 10.00 Fair CLR 82 75 79% 89 29.83 1010.2
16 20:53 Calm 10.00 Fair CLR 87.1 73.9 65% 95 29.82 1009.9
16 19:53 S 9 10.00 Fair CLR 91.9 71.1 51% 99 29.82 1009.6
16 18:53 S 7 10.00 Fair CLR 93 70 96.1 88 47% 99 29.83 1010.0
16 17:53 S 7 10.00 Fair CLR 95 70 44% 101 29.83 1010.3
16 16:53 S 7 10.00 A Few Clouds FEW095 93 71.1 49% 100 29.85 1010.9
16 15:53 S 7 10.00 A Few Clouds FEW120 93 69.1 46% 98 29.85 1010.9
16 14:53 Calm 10.00 Fair CLR 91.9 73.9 56% 102 29.84 1010.5
16 13:53 Vrbl 3 10.00 Fair CLR 95 72 47% 103 29.84 1010.6
16 12:53 SW 7 10.00 Fair CLR 93.9 70 93.9 82 46% 100 29.84 1010.5
16 11:53 SW 13 G 22 10.00 Fair CLR 93 70 47% 99 29.85 1010.7
16 10:53 S 14 G 20 10.00 Fair CLR 90 70 52% 95 29.85 1010.9
16 09:53 S 9 G 17 10.00 Fair CLR 87.1 70 57% 92 29.87 1011.4
16 08:53 S 6 10.00 Fair CLR 84 71.1 65% 89 29.89 1012.0
16 07:53 S 8 10.00 Fair CLR 82.9 70 65% 87 29.87 1011.4
16 06:53 S 5 10.00 Fair CLR 82 70 84.9 78.1 67% 86 29.86 1011.0
16 05:53 S 6 10.00 Fair CLR 81 70 69% 84 29.84 1010.6
16 04:53 S 7 10.00 Fair CLR 81 70 69% 84 29.82 1009.9
16 03:53 Calm 10.00 Fair CLR 80.1 70 71% 83 29.82 1009.7
16 02:53 S 5 10.00 Fair CLR 82.9 70 65% 87 29.83 1010.3
16 01:53 S 6 10.00 Fair CLR 82.9 69.1 63% 87 29.84 1010.3
16 00:53 S 7 10.00 Fair CLR 84.9 68 98.1 84.9 57% 88 29.84 1010.6
15 23:53 S 7 10.00 Fair CLR 86 68 55% 89 29.85 1010.7
15 22:53 S 7 10.00 Fair CLR 87.1 69.1 55% 91 29.83 1010.2
15 21:53 S 9 10.00 Fair CLR 89.1 70 53% 94 29.81 1009.5
15 20:53 S 10 10.00 Fair CLR 91.9 69.1 47% 97 29.81 1009.4
15 19:53 S 14 G 22 10.00 Fair CLR 95 69.1 43% 101 29.8 1009.2
15 18:53 S 13 10.00 Fair CLR 98.1 66.9 100.9 96.1 36% 103 29.82 1009.7
15 17:53 S 15 G 24 10.00 Fair CLR 100 66.9 34% 105 29.83 1010.0
15 16:53 S 16 G 25 10.00 Fair CLR 100 69.1 37% 107 29.83 1010.2
15 15:53 S 15 G 29 10.00 Fair CLR 100.9 70 37% 109 29.84 1010.5
15 14:53 S 15 G 28 10.00 Fair CLR 100 69.1 37% 107 29.86 1011.1
15 13:53 S 15 G 25 10.00 Fair CLR 99 71.1 41% 107 29.87 1011.6
15 12:53 S 14 G 23 10.00 Fair CLR 96.1 70 97 79 43% 103 29.89 1012.3
15 11:53 S 13 G 20 10.00 Fair CLR 93.9 70 46% 100 29.91 1013.0
15 10:53 S 14 10.00 Fair CLR 91 69.1 49% 96 29.94 1013.9
15 09:53 S 10 10.00 Fair CLR 88 69.1 54% 92 29.95 1014.2
15 08:53 S 10 10.00 Fair CLR 84.9 69.1 59% 89 29.97 1015.0
15 07:53 S 8 10.00 Fair CLR 81 70 69% 84 29.96 1014.6
15 06:53 S 7 10.00 Fair CLR 79 71.1 84.9 79 77% 82 29.95 1014.1
15 05:53 S 6 10.00 Fair CLR 79 71.1 77% 82 29.94 1014.0
15 04:53 S 6 10.00 Fair CLR 80.1 71.1 74% 84 29.93 1013.7
15 03:53 S 8 10.00 Fair CLR 81 71.1 72% 85 29.93 1013.4
15 02:53 SW 3 10.00 Fair CLR 80.1 70 71% 83 29.94 1013.9
15 01:53 SW 5 10.00 Fair CLR 82 70 67% 86 29.95 1014.4
Date Time (cdt) Wind (mph) Vis. (mi.) Weather Sky Cond. Air Dwpt Max. Min. Relative Humidity Wind Chill (°F) Heat Index (°F) altimeter (in) sea level (mb) 1 hr 3 hr 6 hr
6 hour
Temperature (ºF) Pressure Precipitation (in)